Погода в Кульгешах

Россия / Чувашская Республика     55°45′32″N   47°57′22″E
темп.,
°C
ветер,
м/с
пор.,
м/с
влажн.,
%
обл.,
%
осадки,
мм/ч
давл.,
гПа
погр.,
м
8 мая, сб
сб800:00+8ссз3793100 2.3 1016421
03:00+7ссв2693100 3.9 1017314
06:00+8ссв358996 0.1 1017309
09:00+10всв347991 0.1 1018611
12:00+11вюв227262 0.0 1017676
15:00+14вюв336638 0.0 1016963
18:00+13юв3579100 0.0 1014232
21:00+10вюв49916 0.0 1014153
9 мая, вс
вс900:00+9юв4149099 0.0 1012293
03:00+9ююв4118396 0.0 1012213
06:00+11ююв4107987 0.0 1012253
09:00+16ююв61165100 0.0 1011578
12:00+18ю71161100 0.0 1012904
15:00+18ююв51065100 0.0 1012895
18:00+17юв4117499 0.1 1012394
21:00+13ююв41289100 2.8 1012280
10 мая, пн
пн1000:00+12зюз359399 0.7 101599
03:00+10зсз3695100 0.7 1017160
06:00+11с3490100 0.3 1018165
09:00+13с4578100 0.3 1020422
12:00+14ссз6581100 0.0 1022696
15:00+11с7986100 0.1 1024452
18:00+10с6989100 0.0 1025485
21:00+8с61092100 0.0 1027442
11 мая, вт
вт1100:00+8ссв5886100 0.0 1028451
03:00+6ссв599262 0.0 1029361
06:00+8ссв698658 0.0 1030411
09:00+12св56715 0.0 1030625
12:00+16св445712 0.0 1030869
15:00+18св455161 0.0 10291041
18:00+16всв366627 0.0 1030166
21:00+11св367728 0.0 103081
12 мая, ср
ср1200:00+9св36751 0.0 103190
03:00+9всв35830 0.0 103084
06:00+11в49790 0.0 1031244
09:00+17в56640 0.0 1031594
12:00+20в555712 0.0 10301013
15:00+21в445345 0.0 10291184
18:00+19всв356718 0.0 1029130
21:00+14в33652 0.0 102930